Time,TemperatureF,DewpointF,PressureIn,WindDirection,WindDirectionDegrees,WindSpeedMPH,WindSpeedGustMPH,Humidity,HourlyPrecipIn,Conditions,Clouds,dailyrainin,SoftwareType,DateUTC
2013-07-02 00:00:00,66.4,56.0,29.82,West,269,0.0,0.0,69,0.00,,,0.00,VWS V14.01,2013-07-02 07:00:00,
2013-07-02 00:06:00,66.4,56.0,29.82,West,269,0.0,0.0,69,0.00,,,0.00,VWS V14.01,2013-07-02 07:06:00,
2013-07-02 00:11:00,66.4,56.0,29.81,West,268,0.0,1.9,69,0.00,,,0.00,VWS V14.01,2013-07-02 07:11:00,
2013-07-02 00:16:00,66.5,56.1,29.81,West,269,0.0,0.0,69,0.00,,,0.00,VWS V14.01,2013-07-02 07:16:00,
2013-07-02 00:21:00,66.5,56.5,29.81,West,269,0.0,0.0,70,0.00,,,0.00,VWS V14.01,2013-07-02 07:21:00,
2013-07-02 00:26:00,66.6,56.1,29.81,West,269,0.0,0.0,69,0.00,,,0.00,VWS V14.01,2013-07-02 07:26:00,
2013-07-02 00:31:00,66.8,56.3,29.81,West,269,0.0,0.0,69,0.00,,,0.00,VWS V14.01,2013-07-02 07:31:00,
2013-07-02 00:36:00,67.1,56.6,29.80,West,269,0.0,0.0,69,0.00,,,0.00,VWS V14.01,2013-07-02 07:36:00,
2013-07-02 00:41:00,67.2,56.8,29.80,West,269,0.0,0.0,69,0.00,,,0.00,VWS V14.01,2013-07-02 07:41:00,
2013-07-02 00:46:00,67.3,56.8,29.81,West,268,0.0,0.0,69,0.00,,,0.00,VWS V14.01,2013-07-02 07:46:00,
2013-07-02 00:51:00,67.4,56.9,29.81,West,268,0.0,0.0,69,0.00,,,0.00,VWS V14.01,2013-07-02 07:51:00,
2013-07-02 00:56:00,67.6,56.7,29.81,West,268,1.9,1.9,68,0.00,,,0.00,VWS V14.01,2013-07-02 07:56:00,
2013-07-02 01:01:00,67.6,56.7,29.81,West,269,0.0,1.9,68,0.00,,,0.00,VWS V14.01,2013-07-02 08:01:00,
2013-07-02 01:06:00,67.7,56.8,29.81,West,276,0.0,1.9,68,0.00,,,0.00,VWS V14.01,2013-07-02 08:06:00,
2013-07-02 01:11:00,67.7,56.8,29.81,West,276,0.0,1.9,68,0.00,,,0.00,VWS V14.01,2013-07-02 08:11:00,
2013-07-02 01:16:00,67.7,56.8,29.81,WNW,288,1.9,1.9,68,0.00,,,0.00,VWS V14.01,2013-07-02 08:16:00,
2013-07-02 01:21:00,67.5,56.6,29.81,WSW,252,0.0,3.8,68,0.00,,,0.00,VWS V14.01,2013-07-02 08:21:00,
2013-07-02 01:26:00,67.3,56.4,29.81,SSW,209,0.0,3.8,68,0.00,,,0.00,VWS V14.01,2013-07-02 08:26:00,
2013-07-02 01:31:00,67.0,56.5,29.81,SW,217,0.0,1.9,69,0.00,,,0.00,VWS V14.01,2013-07-02 08:31:00,
2013-07-02 01:36:00,66.7,56.6,29.81,WSW,246,0.0,1.9,70,0.00,,,0.00,VWS V14.01,2013-07-02 08:36:00,
2013-07-02 01:41:00,66.5,56.5,29.80,WSW,245,0.0,1.9,70,0.00,,,0.00,VWS V14.01,2013-07-02 08:41:00,
2013-07-02 01:46:00,66.3,56.2,29.80,WSW,245,0.0,0.0,70,0.00,,,0.00,VWS V14.01,2013-07-02 08:46:00,
2013-07-02 01:51:00,66.0,56.3,29.80,WSW,244,0.0,1.9,71,0.00,,,0.00,VWS V14.01,2013-07-02 08:51:00,
2013-07-02 01:56:00,65.9,56.2,29.80,WSW,245,0.0,1.9,71,0.00,,,0.00,VWS V14.01,2013-07-02 08:56:00,
2013-07-02 02:01:00,65.7,56.1,29.80,WSW,245,0.0,0.0,71,0.00,,,0.00,VWS V14.01,2013-07-02 09:01:00,
2013-07-02 02:06:00,65.5,56.3,29.80,WSW,244,0.0,0.0,72,0.00,,,0.00,VWS V14.01,2013-07-02 09:06:00,
2013-07-02 02:11:00,65.5,56.7,29.80,WSW,244,0.0,0.0,73,0.00,,,0.00,VWS V14.01,2013-07-02 09:11:00,
2013-07-02 02:16:00,65.4,56.6,29.80,WSW,245,0.0,0.0,73,0.00,,,0.00,VWS V14.01,2013-07-02 09:16:00,
2013-07-02 02:26:00,65.3,56.4,29.80,WSW,245,0.0,0.0,73,0.00,,,0.00,VWS V14.01,2013-07-02 09:26:00,
2013-07-02 02:32:00,65.2,56.3,29.80,WSW,255,0.0,1.9,73,0.00,,,0.00,VWS V14.01,2013-07-02 09:32:00,
2013-07-02 02:37:00,65.1,56.2,29.80,WSW,256,0.0,1.9,73,0.00,,,0.00,VWS V14.01,2013-07-02 09:37:00,
2013-07-02 02:42:00,65.1,56.2,29.80,WSW,256,0.0,1.9,73,0.00,,,0.00,VWS V14.01,2013-07-02 09:42:00,
2013-07-02 02:47:00,65.0,56.5,29.80,West,267,0.0,0.0,74,0.00,,,0.00,VWS V14.01,2013-07-02 09:47:00,
2013-07-02 02:52:00,64.9,56.4,29.80,West,267,0.0,1.9,74,0.00,,,0.00,VWS V14.01,2013-07-02 09:52:00,
2013-07-02 02:57:00,64.8,56.3,29.80,West,266,0.0,1.9,74,0.00,,,0.00,VWS V14.01,2013-07-02 09:57:00,
2013-07-02 03:02:00,64.8,56.3,29.80,West,267,0.0,0.0,74,0.00,,,0.00,VWS V14.01,2013-07-02 10:02:00,
2013-07-02 03:07:00,64.6,56.2,29.80,West,267,0.0,0.0,74,0.00,,,0.00,VWS V14.01,2013-07-02 10:07:00,
2013-07-02 03:12:00,64.6,56.1,29.81,West,267,0.0,0.0,74,0.00,,,0.00,VWS V14.01,2013-07-02 10:12:00,
2013-07-02 03:17:00,64.5,56.0,29.81,West,274,1.9,1.9,74,0.00,,,0.00,VWS V14.01,2013-07-02 10:17:00,
2013-07-02 03:22:00,64.6,56.1,29.80,West,276,0.0,1.9,74,0.00,,,0.00,VWS V14.01,2013-07-02 10:22:00,
2013-07-02 03:27:00,64.5,56.0,29.80,West,276,0.0,1.9,74,0.00,,,0.00,VWS V14.01,2013-07-02 10:27:00,
2013-07-02 03:32:00,64.3,56.2,29.80,West,276,0.0,0.0,75,0.00,,,0.00,VWS V14.01,2013-07-02 10:32:00,
2013-07-02 03:37:00,64.3,56.2,29.80,West,276,0.0,0.0,75,0.00,,,0.00,VWS V14.01,2013-07-02 10:37:00,
2013-07-02 03:42:00,64.2,56.1,29.80,West,276,0.0,0.0,75,0.00,,,0.00,VWS V14.01,2013-07-02 10:42:00,
2013-07-02 03:47:00,64.3,56.2,29.80,West,276,0.0,0.0,75,0.00,,,0.00,VWS V14.01,2013-07-02 10:47:00,
2013-07-02 03:52:00,64.4,56.3,29.80,West,276,0.0,1.9,75,0.00,,,0.00,VWS V14.01,2013-07-02 10:52:00,
2013-07-02 03:57:00,64.4,55.9,29.80,West,266,0.0,1.9,74,0.00,,,0.00,VWS V14.01,2013-07-02 10:57:00,
2013-07-02 04:02:00,64.5,56.0,29.80,West,266,0.0,1.9,74,0.00,,,0.00,VWS V14.01,2013-07-02 11:02:00,
2013-07-02 04:07:00,64.6,56.1,29.80,West,266,0.0,1.9,74,0.00,,,0.00,VWS V14.01,2013-07-02 11:07:00,
2013-07-02 04:12:00,64.7,55.9,29.79,West,266,0.0,1.9,73,0.00,,,0.00,VWS V14.01,2013-07-02 11:12:00,
2013-07-02 04:17:00,64.7,56.3,29.80,West,266,0.0,0.0,74,0.00,,,0.00,VWS V14.01,2013-07-02 11:17:00,
2013-07-02 04:22:00,64.6,56.2,29.79,West,266,0.0,0.0,74,0.00,,,0.00,VWS V14.01,2013-07-02 11:22:00,
2013-07-02 04:27:00,64.7,56.3,29.79,West,266,0.0,0.0,74,0.00,,,0.00,VWS V14.01,2013-07-02 11:27:00,
2013-07-02 04:32:00,64.7,56.3,29.79,West,266,0.0,0.0,74,0.00,,,0.00,VWS V14.01,2013-07-02 11:32:00,
2013-07-02 04:38:00,64.7,56.6,29.80,West,266,0.0,0.0,75,0.00,,,0.00,VWS V14.01,2013-07-02 11:38:00,
2013-07-02 04:43:00,64.7,56.3,29.80,WSW,257,0.0,1.9,74,0.00,,,0.00,VWS V14.01,2013-07-02 11:43:00,
2013-07-02 04:48:00,64.7,56.6,29.80,WSW,257,0.0,1.9,75,0.00,,,0.00,VWS V14.01,2013-07-02 11:48:00,
2013-07-02 04:53:00,64.6,56.2,29.81,WSW,257,0.0,1.9,74,0.00,,,0.00,VWS V14.01,2013-07-02 11:53:00,
2013-07-02 04:58:00,64.6,56.5,29.81,WSW,257,0.0,1.9,75,0.00,,,0.00,VWS V14.01,2013-07-02 11:58:00,
2013-07-02 05:03:00,64.6,56.5,29.81,South,188,0.0,1.9,75,0.00,,,0.00,VWS V14.01,2013-07-02 12:03:00,
2013-07-02 05:08:00,64.6,56.5,29.81,South,186,0.0,1.9,75,0.00,,,0.00,VWS V14.01,2013-07-02 12:08:00,
2013-07-02 05:13:00,64.5,56.4,29.81,South,187,0.0,1.9,75,0.00,,,0.00,VWS V14.01,2013-07-02 12:13:00,
2013-07-02 05:18:00,64.4,56.3,29.81,West,264,0.0,1.9,75,0.00,,,0.00,VWS V14.01,2013-07-02 12:18:00,
2013-07-02 05:23:00,64.4,56.3,29.82,West,264,0.0,1.9,75,0.00,,,0.00,VWS V14.01,2013-07-02 12:23:00,
2013-07-02 05:28:00,64.5,56.7,29.82,West,271,0.0,3.8,76,0.00,,,0.00,VWS V14.01,2013-07-02 12:28:00,
2013-07-02 05:33:00,64.6,56.8,29.82,West,271,0.0,0.0,76,0.00,,,0.00,VWS V14.01,2013-07-02 12:33:00,
2013-07-02 05:38:00,64.5,56.7,29.82,West,271,0.0,0.0,76,0.00,,,0.00,VWS V14.01,2013-07-02 12:38:00,
2013-07-02 05:43:00,64.5,56.7,29.82,West,271,0.0,0.0,76,0.00,,,0.00,VWS V14.01,2013-07-02 12:43:00,
2013-07-02 05:48:00,64.4,56.7,29.81,West,271,0.0,0.0,76,0.00,,,0.00,VWS V14.01,2013-07-02 12:48:00,
2013-07-02 05:53:00,64.3,56.6,29.81,West,271,0.0,0.0,76,0.00,,,0.00,VWS V14.01,2013-07-02 12:53:00,
2013-07-02 05:58:00,64.3,56.9,29.81,West,271,0.0,1.9,77,0.00,,,0.00,VWS V14.01,2013-07-02 12:58:00,
2013-07-02 06:03:00,64.3,56.9,29.81,West,271,0.0,0.0,77,0.00,,,0.00,VWS V14.01,2013-07-02 13:03:00,
2013-07-02 06:08:00,64.3,56.9,29.81,West,271,0.0,0.0,77,0.00,,,0.00,VWS V14.01,2013-07-02 13:08:00,
2013-07-02 06:13:00,64.2,56.8,29.82,WSW,252,0.0,1.9,77,0.00,,,0.00,VWS V14.01,2013-07-02 13:13:00,
2013-07-02 06:18:00,64.1,56.8,29.82,WSW,253,0.0,0.0,77,0.00,,,0.00,VWS V14.01,2013-07-02 13:18:00,
2013-07-02 06:23:00,63.9,56.9,29.83,WSW,253,0.0,0.0,78,0.00,,,0.00,VWS V14.01,2013-07-02 13:23:00,
2013-07-02 06:28:00,63.8,56.8,29.83,WSW,253,0.0,0.0,78,0.00,,,0.00,VWS V14.01,2013-07-02 13:28:00,
2013-07-02 06:34:00,63.7,57.1,29.83,WSW,253,0.0,0.0,79,0.00,,,0.00,VWS V14.01,2013-07-02 13:34:00,
2013-07-02 06:39:00,63.9,57.3,29.83,WSW,253,0.0,1.9,79,0.00,,,0.00,VWS V14.01,2013-07-02 13:39:00,
2013-07-02 06:44:00,64.3,57.3,29.83,WSW,253,0.0,1.9,78,0.00,,,0.00,VWS V14.01,2013-07-02 13:44:00,
2013-07-02 06:49:00,64.6,57.2,29.83,West,267,0.0,1.9,77,0.00,,,0.00,VWS V14.01,2013-07-02 13:49:00,
2013-07-02 06:54:00,64.8,57.5,29.83,West,267,0.0,1.9,77,0.00,,,0.00,VWS V14.01,2013-07-02 13:54:00,
2013-07-02 06:59:00,64.9,57.5,29.83,WSW,249,0.0,1.9,77,0.00,,,0.00,VWS V14.01,2013-07-02 13:59:00,
2013-07-02 07:04:00,65.1,57.3,29.83,WSW,256,0.0,1.9,76,0.00,,,0.00,VWS V14.01,2013-07-02 14:04:00,
2013-07-02 07:09:00,65.2,57.8,29.83,WSW,256,0.0,1.9,77,0.00,,,0.00,VWS V14.01,2013-07-02 14:09:00,
2013-07-02 07:11:00,65.2,57.4,29.83,WSW,256,0.0,1.9,76,0.00,,,0.00,VWS V14.01,2013-07-02 14:11:00,
2013-07-02 07:16:00,65.3,57.2,29.83,WNW,284,0.0,1.9,75,0.00,,,0.00,VWS V14.01,2013-07-02 14:16:00,
2013-07-02 07:21:00,65.4,58.0,29.83,WNW,284,0.0,1.9,77,0.00,,,0.00,VWS V14.01,2013-07-02 14:21:00,
2013-07-02 07:26:00,65.4,57.3,29.83,WNW,284,0.0,1.9,75,0.00,,,0.00,VWS V14.01,2013-07-02 14:26:00,
2013-07-02 07:31:00,65.6,57.5,29.83,WNW,284,0.0,0.0,75,0.00,,,0.00,VWS V14.01,2013-07-02 14:31:00,
2013-07-02 07:36:00,65.9,57.8,29.83,WNW,284,0.0,1.9,75,0.00,,,0.00,VWS V14.01,2013-07-02 14:36:00,
2013-07-02 07:41:00,66.3,57.7,29.84,WNW,283,0.0,1.9,74,0.00,,,0.00,VWS V14.01,2013-07-02 14:41:00,
2013-07-02 07:46:00,66.7,58.5,29.84,WNW,283,0.0,0.0,75,0.00,,,0.00,VWS V14.01,2013-07-02 14:46:00,
2013-07-02 07:51:00,67.3,58.8,29.85,SW,233,0.0,1.9,74,0.00,,,0.00,VWS V14.01,2013-07-02 14:51:00,
2013-07-02 07:56:00,68.1,59.1,29.85,South,174,3.8,3.8,73,0.00,,,0.00,VWS V14.01,2013-07-02 14:56:00,
2013-07-02 08:01:00,69.0,58.8,29.85,WNW,286,0.0,5.7,70,0.00,,SCT150,0.00,VWS V14.01,2013-07-02 15:01:00,
2013-07-02 08:06:00,69.6,59.0,29.85,WNW,286,0.0,5.7,69,0.00,,SCT150,0.00,VWS V14.01,2013-07-02 15:06:00,
2013-07-02 08:12:00,70.1,59.9,29.85,SSW,195,1.9,5.7,70,0.00,,SCT150,0.00,VWS V14.01,2013-07-02 15:12:00,
2013-07-02 08:17:00,71.0,59.5,29.86,SSW,200,0.0,0.0,67,0.00,,SCT150,0.00,VWS V14.01,2013-07-02 15:17:00,
2013-07-02 08:22:00,71.7,59.3,29.86,SSW,212,0.0,3.8,65,0.00,,SCT150,0.00,VWS V14.01,2013-07-02 15:22:00,
2013-07-02 08:27:00,72.0,59.6,29.85,West,274,1.9,3.8,65,0.00,,SCT150,0.00,VWS V14.01,2013-07-02 15:27:00,
2013-07-02 08:32:00,72.2,59.8,29.86,WNW,293,1.9,3.8,65,0.00,,SCT150,0.00,VWS V14.01,2013-07-02 15:32:00,
2013-07-02 08:37:00,72.4,59.5,29.86,SW,221,5.7,5.7,64,0.00,,SCT150,0.00,VWS V14.01,2013-07-02 15:37:00,
2013-07-02 08:42:00,72.6,59.7,29.86,SSW,203,1.9,5.7,64,0.00,,SCT150,0.00,VWS V14.01,2013-07-02 15:42:00,
2013-07-02 08:47:00,72.8,60.4,29.86,SSW,204,0.0,3.8,65,0.00,,SCT150,0.00,VWS V14.01,2013-07-02 15:47:00,
2013-07-02 08:52:00,73.3,59.5,29.86,NW,304,0.0,5.7,62,0.00,,SCT150,0.00,VWS V14.01,2013-07-02 15:52:00,
2013-07-02 08:57:00,72.9,60.0,29.86,West,281,1.9,7.6,64,0.00,,SCT150,0.00,VWS V14.01,2013-07-02 15:57:00,
2013-07-02 09:02:00,73.3,59.5,29.86,NNW,334,0.0,1.9,62,0.00,,SCT150,0.00,VWS V14.01,2013-07-02 16:02:00,
2013-07-02 09:07:00,73.9,60.5,29.86,SSW,195,0.0,1.9,63,0.00,,SCT150,0.00,VWS V14.01,2013-07-02 16:07:00,
2013-07-02 09:12:00,74.5,59.3,29.86,WSW,241,1.9,3.8,59,0.00,,SCT150,0.00,VWS V14.01,2013-07-02 16:12:00,
2013-07-02 09:17:00,74.9,59.6,29.86,North,359,0.0,1.9,59,0.00,,SCT150,0.00,VWS V14.01,2013-07-02 16:17:00,
2013-07-02 09:22:00,75.6,59.8,29.86,WNW,295,1.9,3.8,58,0.00,,SCT150,0.00,VWS V14.01,2013-07-02 16:22:00,
2013-07-02 09:27:00,75.1,59.3,29.86,WNW,283,1.9,3.8,58,0.00,,SCT150,0.00,VWS V14.01,2013-07-02 16:27:00,
2013-07-02 09:32:00,75.3,60.5,29.86,WNW,284,0.0,1.9,60,0.00,,SCT150,0.00,VWS V14.01,2013-07-02 16:32:00,
2013-07-02 09:37:00,76.4,60.6,29.87,ESE,115,0.0,3.8,58,0.00,,SCT150,0.00,VWS V14.01,2013-07-02 16:37:00,
2013-07-02 09:42:00,77.5,60.6,29.87,South,172,0.0,3.8,56,0.00,,SCT150,0.00,VWS V14.01,2013-07-02 16:42:00,
2013-07-02 09:48:00,78.5,61.5,29.86,South,176,0.0,1.9,56,0.00,,SCT150,0.00,VWS V14.01,2013-07-02 16:48:00,
2013-07-02 09:53:00,79.1,61.1,29.86,ESE,106,0.0,1.9,54,0.00,,SCT150,0.00,VWS V14.01,2013-07-02 16:53:00,
2013-07-02 09:58:00,79.4,61.8,29.86,ESE,122,0.0,3.8,55,0.00,,SCT150,0.00,VWS V14.01,2013-07-02 16:58:00,
2013-07-02 10:03:00,79.7,61.0,29.86,WNW,287,0.0,5.7,53,0.00,,CLR,0.00,VWS V14.01,2013-07-02 17:03:00,
2013-07-02 10:08:00,79.9,61.3,29.86,SSW,208,0.0,5.7,53,0.00,,CLR,0.00,VWS V14.01,2013-07-02 17:08:00,
2013-07-02 10:13:00,80.2,62.1,29.86,West,263,0.0,5.7,54,0.00,,CLR,0.00,VWS V14.01,2013-07-02 17:13:00,
2013-07-02 10:18:00,80.8,61.5,29.86,NW,308,1.9,3.8,52,0.00,,CLR,0.00,VWS V14.01,2013-07-02 17:18:00,
2013-07-02 10:23:00,80.9,61.1,29.86,WNW,284,1.9,5.7,51,0.00,,CLR,0.00,VWS V14.01,2013-07-02 17:23:00,
2013-07-02 10:28:00,81.1,61.3,29.86,SSW,199,1.9,5.7,51,0.00,,CLR,0.00,VWS V14.01,2013-07-02 17:28:00,
2013-07-02 10:33:00,81.7,61.2,29.86,South,174,0.0,3.8,50,0.00,,CLR,0.00,VWS V14.01,2013-07-02 17:33:00,
2013-07-02 10:38:00,82.6,62.1,29.86,West,260,0.0,3.8,50,0.00,,CLR,0.00,VWS V14.01,2013-07-02 17:38:00,
2013-07-02 10:43:00,83.3,62.1,29.86,WSW,245,1.9,3.8,49,0.00,,CLR,0.00,VWS V14.01,2013-07-02 17:43:00,
2013-07-02 10:48:00,83.9,62.7,29.86,WNW,285,3.8,5.7,49,0.00,,CLR,0.00,VWS V14.01,2013-07-02 17:48:00,
2013-07-02 10:53:00,83.7,61.4,29.86,SSW,203,1.9,5.7,47,0.00,,CLR,0.00,VWS V14.01,2013-07-02 17:53:00,
2013-07-02 10:58:00,84.3,62.5,29.86,SSE,162,1.9,5.7,48,0.00,,CLR,0.00,VWS V14.01,2013-07-02 17:58:00,
2013-07-02 11:03:00,84.5,62.7,29.86,West,262,1.9,3.8,48,0.00,,,0.00,VWS V14.01,2013-07-02 18:03:00,
2013-07-02 11:08:00,84.9,62.4,29.85,SW,225,1.9,3.8,47,0.00,,,0.00,VWS V14.01,2013-07-02 18:08:00,
2013-07-02 11:13:00,85.7,61.3,29.85,West,263,1.9,5.7,44,0.00,,,0.00,VWS V14.01,2013-07-02 18:13:00,
2013-07-02 11:18:00,86.2,62.3,29.85,WNW,284,1.9,3.8,45,0.00,,,0.00,VWS V14.01,2013-07-02 18:18:00,
2013-07-02 11:23:00,86.3,61.9,29.85,ESE,108,0.0,5.7,44,0.00,,,0.00,VWS V14.01,2013-07-02 18:23:00,
2013-07-02 11:28:00,86.0,61.5,29.85,West,281,0.0,7.6,44,0.00,,,0.00,VWS V14.01,2013-07-02 18:28:00,
2013-07-02 11:33:00,86.2,62.4,29.85,West,276,1.9,1.9,45,0.00,,,0.00,VWS V14.01,2013-07-02 18:33:00,
2013-07-02 11:38:00,87.1,62.6,29.84,South,179,3.8,3.8,44,0.00,,,0.00,VWS V14.01,2013-07-02 18:38:00,
2013-07-02 11:44:00,87.4,60.2,29.84,West,280,1.9,5.7,40,0.00,,,0.00,VWS V14.01,2013-07-02 18:44:00,
2013-07-02 11:49:00,87.0,62.4,29.84,WNW,288,1.9,5.7,44,0.00,,,0.00,VWS V14.01,2013-07-02 18:49:00,
2013-07-02 11:54:00,87.5,61.6,29.84,WNW,297,1.9,5.7,42,0.00,,,0.00,VWS V14.01,2013-07-02 18:54:00,
2013-07-02 11:59:00,88.3,61.7,29.84,SSW,210,0.0,5.7,41,0.00,,,0.00,VWS V14.01,2013-07-02 18:59:00,
2013-07-02 12:04:00,88.7,62.0,29.84,SSW,208,0.0,5.7,41,0.00,,,0.00,VWS V14.01,2013-07-02 19:04:00,
2013-07-02 12:09:00,89.0,62.3,29.83,West,278,0.0,5.7,41,0.00,,,0.00,VWS V14.01,2013-07-02 19:09:00,
2013-07-02 12:14:00,89.4,61.2,29.83,WNW,287,1.9,5.7,39,0.00,,,0.00,VWS V14.01,2013-07-02 19:14:00,
2013-07-02 12:19:00,88.9,61.5,29.83,West,278,1.9,7.6,40,0.00,,,0.00,VWS V14.01,2013-07-02 19:19:00,
2013-07-02 12:24:00,88.8,60.7,29.83,WNW,282,3.8,7.6,39,0.00,,,0.00,VWS V14.01,2013-07-02 19:24:00,
2013-07-02 12:29:00,89.5,62.7,29.83,WNW,291,3.8,7.6,41,0.00,,,0.00,VWS V14.01,2013-07-02 19:29:00,
2013-07-02 12:34:00,89.9,61.7,29.83,West,274,3.8,5.7,39,0.00,,,0.00,VWS V14.01,2013-07-02 19:34:00,
2013-07-02 12:39:00,90.7,63.0,29.83,SSW,210,1.9,5.7,40,0.00,,,0.00,VWS V14.01,2013-07-02 19:39:00,
2013-07-02 12:44:00,91.4,63.7,29.83,WSW,250,0.0,5.7,40,0.00,,,0.00,VWS V14.01,2013-07-02 19:44:00,
2013-07-02 12:49:00,91.6,60.1,29.83,WNW,300,5.7,9.5,35,0.00,,,0.00,VWS V14.01,2013-07-02 19:49:00,
2013-07-02 12:54:00,91.6,63.1,29.83,SW,225,0.0,9.5,39,0.00,,,0.00,VWS V14.01,2013-07-02 19:54:00,
2013-07-02 12:59:00,92.2,62.9,29.83,WSW,243,0.0,9.5,38,0.00,,,0.00,VWS V14.01,2013-07-02 19:59:00,
2013-07-02 13:04:00,92.4,63.2,29.83,SSW,212,1.9,7.6,38,0.00,,,0.00,VWS V14.01,2013-07-02 20:04:00,
2013-07-02 13:09:00,92.6,63.3,29.83,West,264,3.8,7.6,38,0.00,,,0.00,VWS V14.01,2013-07-02 20:09:00,
2013-07-02 13:14:00,92.7,63.4,29.83,SSW,193,1.9,7.6,38,0.00,,,0.00,VWS V14.01,2013-07-02 20:14:00,
2013-07-02 13:19:00,92.9,63.6,29.83,West,277,1.9,5.7,38,0.00,,,0.00,VWS V14.01,2013-07-02 20:19:00,
2013-07-02 13:24:00,92.9,62.8,29.83,West,279,3.8,5.7,37,0.00,,,0.00,VWS V14.01,2013-07-02 20:24:00,
2013-07-02 13:29:00,92.6,61.0,29.83,West,260,3.8,3.8,35,0.00,,,0.00,VWS V14.01,2013-07-02 20:29:00,
2013-07-02 13:34:00,92.2,62.9,29.82,NW,304,1.9,5.7,38,0.00,,,0.00,VWS V14.01,2013-07-02 20:34:00,
2013-07-02 13:39:00,91.7,61.8,29.82,SW,221,1.9,7.6,37,0.00,,,0.00,VWS V14.01,2013-07-02 20:39:00,
2013-07-02 13:45:00,91.7,62.5,29.83,SW,217,1.9,1.9,38,0.00,,,0.00,VWS V14.01,2013-07-02 20:45:00,
2013-07-02 13:50:00,92.1,61.3,29.83,SE,136,3.8,9.5,36,0.00,,,0.00,VWS V14.01,2013-07-02 20:50:00,
2013-07-02 13:55:00,92.1,61.3,29.82,West,269,1.9,9.5,36,0.00,,,0.00,VWS V14.01,2013-07-02 20:55:00,
2013-07-02 14:00:00,92.0,61.2,29.82,WNW,288,1.9,5.7,36,0.00,,,0.00,VWS V14.01,2013-07-02 21:00:00,
2013-07-02 14:05:00,91.7,62.5,29.82,West,269,1.9,7.6,38,0.00,,,0.00,VWS V14.01,2013-07-02 21:05:00,
2013-07-02 14:10:00,90.7,60.9,29.82,NNW,348,7.6,15.2,37,0.00,,,0.00,VWS V14.01,2013-07-02 21:10:00,
2013-07-02 14:15:00,90.3,60.5,29.82,SW,228,5.7,5.7,37,0.00,,,0.00,VWS V14.01,2013-07-02 21:15:00,
2013-07-02 14:20:00,89.8,60.8,29.82,WNW,285,1.9,9.5,38,0.00,,,0.00,VWS V14.01,2013-07-02 21:20:00,
2013-07-02 14:25:00,89.4,60.5,29.83,NW,307,5.7,9.5,38,0.00,,,0.00,VWS V14.01,2013-07-02 21:25:00,
2013-07-02 14:30:00,89.2,60.3,29.82,SSW,198,1.9,3.8,38,0.00,,,0.00,VWS V14.01,2013-07-02 21:30:00,
2013-07-02 14:35:00,88.9,60.1,29.82,South,180,7.6,11.4,38,0.00,,,0.00,VWS V14.01,2013-07-02 21:35:00,
2013-07-02 14:40:00,88.9,61.5,29.82,SSW,202,3.8,11.4,40,0.00,,,0.00,VWS V14.01,2013-07-02 21:40:00,
2013-07-02 14:45:00,88.9,60.1,29.83,SW,220,3.8,5.7,38,0.00,,,0.00,VWS V14.01,2013-07-02 21:45:00,
2013-07-02 14:50:00,88.6,61.2,29.82,WSW,257,1.9,9.5,40,0.00,,,0.00,VWS V14.01,2013-07-02 21:50:00,
2013-07-02 14:55:00,88.3,60.2,29.82,SSW,210,5.7,11.4,39,0.00,,,0.00,VWS V14.01,2013-07-02 21:55:00,
2013-07-02 15:00:00,88.2,60.9,29.82,WSW,255,5.7,5.7,40,0.00,,,0.00,VWS V14.01,2013-07-02 22:00:00,
2013-07-02 15:05:00,88.0,60.7,29.82,SW,218,0.0,11.4,40,0.00,,,0.00,VWS V14.01,2013-07-02 22:05:00,
2013-07-02 15:10:00,87.9,62.0,29.82,West,264,0.0,13.3,42,0.00,,,0.00,VWS V14.01,2013-07-02 22:10:00,
2013-07-02 15:15:00,88.2,60.9,29.82,West,264,1.9,5.7,40,0.00,,,0.00,VWS V14.01,2013-07-02 22:15:00,
2013-07-02 15:20:00,87.6,61.0,29.83,SW,233,9.5,11.4,41,0.00,,,0.00,VWS V14.01,2013-07-02 22:20:00,
2013-07-02 15:25:00,87.7,61.1,29.83,WNW,283,1.9,11.4,41,0.00,,,0.00,VWS V14.01,2013-07-02 22:25:00,
2013-07-02 15:30:00,87.8,60.5,29.83,West,280,1.9,9.5,40,0.00,,,0.00,VWS V14.01,2013-07-02 22:30:00,
2013-07-02 15:35:00,87.6,60.3,29.83,West,264,3.8,11.4,40,0.00,,,0.00,VWS V14.01,2013-07-02 22:35:00,
2013-07-02 15:41:00,87.2,60.7,29.83,SW,231,0.0,11.4,41,0.00,,,0.00,VWS V14.01,2013-07-02 22:41:00,
2013-07-02 15:46:00,87.1,60.6,29.84,WNW,287,1.9,7.6,41,0.00,,,0.00,VWS V14.01,2013-07-02 22:46:00,
2013-07-02 15:51:00,86.8,60.3,29.83,WSW,245,9.5,9.5,41,0.00,,,0.00,VWS V14.01,2013-07-02 22:51:00,
2013-07-02 15:56:00,86.1,59.6,29.84,WNW,297,3.8,11.4,41,0.00,,,0.00,VWS V14.01,2013-07-02 22:56:00,
2013-07-02 16:01:00,86.1,60.3,29.84,WSW,246,3.8,7.6,42,0.00,,,0.00,VWS V14.01,2013-07-02 23:01:00,
2013-07-02 16:06:00,85.8,59.4,29.84,West,263,1.9,9.5,41,0.00,,,0.00,VWS V14.01,2013-07-02 23:06:00,
2013-07-02 16:11:00,85.5,59.2,29.84,WNW,290,5.7,11.4,41,0.00,,,0.00,VWS V14.01,2013-07-02 23:11:00,
2013-07-02 16:16:00,85.3,59.7,29.84,ESE,113,1.9,3.8,42,0.00,,,0.00,VWS V14.01,2013-07-02 23:16:00,
2013-07-02 16:21:00,85.1,59.4,29.85,West,274,5.7,11.4,42,0.00,,,0.00,VWS V14.01,2013-07-02 23:21:00,
2013-07-02 16:26:00,85.0,59.3,29.85,South,179,1.9,11.4,42,0.00,,,0.00,VWS V14.01,2013-07-02 23:26:00,
2013-07-02 16:31:00,85.0,59.3,29.85,SSW,197,3.8,5.7,42,0.00,,,0.00,VWS V14.01,2013-07-02 23:31:00,
2013-07-02 16:36:00,84.9,59.3,29.85,WSW,250,1.9,11.4,42,0.00,,,0.00,VWS V14.01,2013-07-02 23:36:00,
2013-07-02 16:41:00,84.7,59.8,29.85,West,278,9.5,11.4,43,0.00,,,0.00,VWS V14.01,2013-07-02 23:41:00,
2013-07-02 16:46:00,82.6,58.5,29.86,WSW,253,3.8,9.5,44,0.00,,,0.00,VWS V14.01,2013-07-02 23:46:00,
2013-07-02 16:51:00,81.6,58.2,29.86,West,264,1.9,11.4,45,0.00,,,0.00,VWS V14.01,2013-07-02 23:51:00,
2013-07-02 16:55:00,80.5,58.4,29.86,West,274,1.9,13.3,47,0.00,,,0.00,VWS V14.01,2013-07-02 23:55:00,
2013-07-02 17:00:00,80.3,59.4,29.86,WSW,242,0.0,1.9,49,0.00,,,0.00,VWS V14.01,2013-07-03 00:00:00,
2013-07-02 17:05:00,80.4,58.9,29.86,SW,232,1.9,7.6,48,0.00,,,0.00,VWS V14.01,2013-07-03 00:05:00,
2013-07-02 17:09:00,80.1,58.7,29.86,SSW,207,3.8,9.5,48,0.00,,,0.00,VWS V14.01,2013-07-03 00:09:00,
2013-07-02 17:10:00,80.1,58.1,29.87,South,183,1.9,9.5,47,0.00,,,0.00,VWS V14.01,2013-07-03 00:10:00,
2013-07-02 17:15:00,79.7,58.8,29.86,SW,218,1.9,3.8,49,0.00,,,0.00,VWS V14.01,2013-07-03 00:15:00,
2013-07-02 17:20:00,79.4,58.0,29.86,South,172,1.9,9.5,48,0.00,,,0.00,VWS V14.01,2013-07-03 00:20:00,
2013-07-02 17:25:00,79.0,58.3,29.86,SSW,200,5.7,9.5,49,0.00,,,0.00,VWS V14.01,2013-07-03 00:25:00,
2013-07-02 17:30:00,78.5,57.8,29.86,SSW,205,1.9,3.8,49,0.00,,,0.00,VWS V14.01,2013-07-03 00:30:00,
2013-07-02 17:31:00,78.4,57.7,29.86,SSW,208,1.9,5.7,49,0.00,,,0.00,VWS V14.01,2013-07-03 00:31:00,
2013-07-02 17:33:00,78.2,58.1,29.86,West,264,3.8,5.7,50,0.00,,,0.00,VWS V14.01,2013-07-03 00:33:00,
2013-07-02 17:38:00,78.1,58.6,29.86,East,91,3.8,7.6,51,0.00,,,0.00,VWS V14.01,2013-07-03 00:38:00,
2013-07-02 17:43:00,77.7,57.6,29.87,South,174,3.8,7.6,50,0.00,,,0.00,VWS V14.01,2013-07-03 00:43:00,
2013-07-02 17:49:00,77.2,57.2,29.87,SSW,193,11.4,13.3,50,0.00,,,0.00,VWS V14.01,2013-07-03 00:49:00,
2013-07-02 17:54:00,76.1,56.7,29.87,South,177,5.7,13.3,51,0.00,,,0.00,VWS V14.01,2013-07-03 00:54:00,
2013-07-02 17:59:00,75.2,57.4,29.87,WNW,283,0.0,13.3,54,0.00,,,0.00,VWS V14.01,2013-07-03 00:59:00,
2013-07-02 18:04:00,74.8,57.6,29.87,SE,141,3.8,11.4,55,0.00,,,0.00,VWS V14.01,2013-07-03 01:04:00,
2013-07-02 18:08:00,74.4,56.7,29.87,SW,221,3.8,11.4,54,0.00,,,0.00,VWS V14.01,2013-07-03 01:08:00,
2013-07-02 18:11:00,74.1,56.4,29.87,SSW,203,1.9,11.4,54,0.00,,,0.00,VWS V14.01,2013-07-03 01:11:00,
2013-07-02 18:15:00,73.6,57.0,29.87,SSW,212,1.9,3.8,56,0.00,,,0.00,VWS V14.01,2013-07-03 01:15:00,
2013-07-02 18:20:00,73.4,56.7,29.87,SW,218,3.8,7.6,56,0.00,,,0.00,VWS V14.01,2013-07-03 01:20:00,
2013-07-02 18:25:00,73.3,57.2,29.87,SSW,207,1.9,7.6,57,0.00,,,0.00,VWS V14.01,2013-07-03 01:25:00,
2013-07-02 18:30:00,73.1,56.5,29.87,South,188,3.8,5.7,56,0.00,,,0.00,VWS V14.01,2013-07-03 01:30:00,
2013-07-02 18:35:00,72.4,56.8,29.87,SSW,197,1.9,9.5,58,0.00,,,0.00,VWS V14.01,2013-07-03 01:35:00,
2013-07-02 18:40:00,72.2,56.6,29.87,West,276,1.9,9.5,58,0.00,,,0.00,VWS V14.01,2013-07-03 01:40:00,
2013-07-02 18:45:00,71.8,56.2,29.87,NW,305,3.8,9.5,58,0.00,,,0.00,VWS V14.01,2013-07-03 01:45:00,
2013-07-02 18:50:00,71.1,56.5,29.87,SW,224,0.0,9.5,60,0.00,,,0.00,VWS V14.01,2013-07-03 01:50:00,
2013-07-02 18:51:00,71.0,56.9,29.87,SW,215,1.9,9.5,61,0.00,,,0.00,VWS V14.01,2013-07-03 01:51:00,
2013-07-02 18:52:00,71.0,56.9,29.88,South,184,1.9,9.5,61,0.00,,,0.00,VWS V14.01,2013-07-03 01:52:00,
2013-07-02 18:57:00,70.6,56.5,29.88,West,264,3.8,9.5,61,0.00,,,0.00,VWS V14.01,2013-07-03 01:57:00,
2013-07-02 19:03:00,70.1,56.5,29.88,SW,235,0.0,5.7,62,0.00,,,0.00,VWS V14.01,2013-07-03 02:03:00,
2013-07-02 19:08:00,69.6,56.5,29.88,SW,221,0.0,5.7,63,0.00,,,0.00,VWS V14.01,2013-07-03 02:08:00,
2013-07-02 19:13:00,69.1,56.4,29.88,South,178,1.9,5.7,64,0.00,,,0.00,VWS V14.01,2013-07-03 02:13:00,
2013-07-02 19:18:00,68.5,56.7,29.88,SW,232,1.9,7.6,66,0.00,,,0.00,VWS V14.01,2013-07-03 02:18:00,
2013-07-02 19:23:00,67.7,56.4,29.88,NE,34,0.0,9.5,67,0.00,,,0.00,VWS V14.01,2013-07-03 02:23:00,
2013-07-02 19:29:00,67.1,56.6,29.88,West,263,3.8,9.5,69,0.00,,,0.00,VWS V14.01,2013-07-03 02:29:00,
2013-07-02 19:32:00,66.6,56.5,29.89,West,267,0.0,5.7,70,0.00,,,0.00,VWS V14.01,2013-07-03 02:32:00,
2013-07-02 19:37:00,66.3,57.0,29.89,West,269,1.9,5.7,72,0.00,,,0.00,VWS V14.01,2013-07-03 02:37:00,
2013-07-02 19:42:00,66.2,56.9,29.89,West,272,1.9,5.7,72,0.00,,,0.00,VWS V14.01,2013-07-03 02:42:00,
2013-07-02 19:49:00,65.6,56.8,29.89,West,262,1.9,5.7,73,0.00,,,0.00,VWS V14.01,2013-07-03 02:49:00,
2013-07-02 19:54:00,65.2,56.7,29.89,WSW,246,1.9,5.7,74,0.00,,,0.00,VWS V14.01,2013-07-03 02:54:00,
2013-07-02 19:59:00,64.9,56.8,29.88,SSW,204,0.0,5.7,75,0.00,,,0.00,VWS V14.01,2013-07-03 02:59:00,
2013-07-02 20:06:00,64.6,56.8,29.88,WSW,254,1.9,7.6,76,0.00,,,0.00,VWS V14.01,2013-07-03 03:06:00,
2013-07-02 20:07:00,64.5,56.7,29.88,WSW,253,1.9,7.6,76,0.00,,,0.00,VWS V14.01,2013-07-03 03:07:00,
2013-07-02 20:12:00,64.1,56.4,29.88,SW,214,0.0,7.6,76,0.00,,,0.00,VWS V14.01,2013-07-03 03:12:00,
2013-07-02 20:17:00,63.8,56.5,29.88,SSW,212,0.0,9.5,77,0.00,,,0.00,VWS V14.01,2013-07-03 03:17:00,
2013-07-02 20:21:00,63.7,56.7,29.88,NE,49,0.0,9.5,78,0.00,,,0.00,VWS V14.01,2013-07-03 03:21:00,
2013-07-02 20:26:00,63.4,56.8,29.88,SW,214,0.0,9.5,79,0.00,,,0.00,VWS V14.01,2013-07-03 03:26:00,
2013-07-02 20:31:00,63.2,56.6,29.89,South,186,7.6,7.6,79,0.00,,,0.00,VWS V14.01,2013-07-03 03:31:00,
2013-07-02 20:37:00,62.9,56.7,29.89,NW,318,0.0,7.6,80,0.00,,,0.00,VWS V14.01,2013-07-03 03:37:00,
2013-07-02 20:38:00,62.8,56.6,29.89,West,262,1.9,7.6,80,0.00,,,0.00,VWS V14.01,2013-07-03 03:38:00,
2013-07-02 20:43:00,62.6,56.3,29.89,SSW,193,0.0,7.6,80,0.00,,,0.00,VWS V14.01,2013-07-03 03:43:00,
2013-07-02 20:49:00,62.3,56.4,29.89,SE,143,1.9,3.8,81,0.00,,,0.00,VWS V14.01,2013-07-03 03:49:00,
2013-07-02 20:53:00,62.1,56.6,29.89,SW,219,0.0,9.5,82,0.00,,,0.00,VWS V14.01,2013-07-03 03:53:00,
2013-07-02 20:59:00,61.9,56.4,29.89,South,174,0.0,9.5,82,0.00,,,0.00,VWS V14.01,2013-07-03 03:59:00,
2013-07-02 21:01:00,61.8,56.6,29.89,SSE,167,1.9,3.8,83,0.00,,,0.00,VWS V14.01,2013-07-03 04:01:00,
2013-07-02 21:02:00,61.8,56.3,29.89,SW,226,0.0,3.8,82,0.00,,,0.00,VWS V14.01,2013-07-03 04:02:00,
2013-07-02 21:03:00,61.8,56.6,29.89,South,177,0.0,3.8,83,0.00,,,0.00,VWS V14.01,2013-07-03 04:03:00,
2013-07-02 21:04:00,61.8,56.6,29.89,SW,222,0.0,3.8,83,0.00,,,0.00,VWS V14.01,2013-07-03 04:04:00,
2013-07-02 21:05:00,61.8,56.5,29.89,SW,215,7.6,7.6,83,0.00,,,0.00,VWS V14.01,2013-07-03 04:05:00,
2013-07-02 21:10:00,61.7,56.5,29.89,SSW,212,5.7,7.6,83,0.00,,,0.00,VWS V14.01,2013-07-03 04:10:00,
2013-07-02 21:14:00,61.7,56.5,29.89,SW,218,0.0,11.4,83,0.00,,,0.00,VWS V14.01,2013-07-03 04:14:00,
2013-07-02 21:19:00,61.5,56.3,29.89,West,266,0.0,5.7,83,0.00,,,0.00,VWS V14.01,2013-07-03 04:19:00,
2013-07-02 21:24:00,61.4,56.5,29.90,SSW,212,3.8,5.7,84,0.00,,,0.00,VWS V14.01,2013-07-03 04:24:00,
2013-07-02 21:29:00,61.3,56.4,29.90,South,179,0.0,5.7,84,0.00,,,0.00,VWS V14.01,2013-07-03 04:29:00,
2013-07-02 21:31:00,61.3,56.4,29.90,SSW,205,0.0,0.0,84,0.00,,,0.00,VWS V14.01,2013-07-03 04:31:00,
2013-07-02 21:32:00,61.3,56.4,29.90,SSW,205,0.0,0.0,84,0.00,,,0.00,VWS V14.01,2013-07-03 04:32:00,
2013-07-02 21:37:00,61.3,56.4,29.90,WNW,294,1.9,1.9,84,0.00,,,0.00,VWS V14.01,2013-07-03 04:37:00,
2013-07-02 21:42:00,61.2,56.7,29.90,WNW,283,3.8,5.7,85,0.00,,,0.00,VWS V14.01,2013-07-03 04:42:00,
2013-07-02 21:46:00,61.1,56.6,29.90,West,280,0.0,0.0,85,0.00,,,0.00,VWS V14.01,2013-07-03 04:46:00,
2013-07-02 21:52:00,61.0,56.5,29.90,West,279,1.9,3.8,85,0.00,,,0.00,VWS V14.01,2013-07-03 04:52:00,
2013-07-02 21:53:00,61.0,56.5,29.90,WSW,255,0.0,3.8,85,0.00,,,0.00,VWS V14.01,2013-07-03 04:53:00,
2013-07-02 21:58:00,61.0,56.4,29.90,WSW,248,0.0,3.8,85,0.00,,,0.00,VWS V14.01,2013-07-03 04:58:00,
2013-07-02 22:03:00,61.0,56.4,29.91,WSW,246,0.0,1.9,85,0.00,,,0.00,VWS V14.01,2013-07-03 05:03:00,
2013-07-02 22:04:00,61.0,56.4,29.91,WSW,246,0.0,1.9,85,0.00,,,0.00,VWS V14.01,2013-07-03 05:04:00,
2013-07-02 22:09:00,61.0,56.7,29.91,West,259,0.0,1.9,86,0.00,,,0.00,VWS V14.01,2013-07-03 05:09:00,
2013-07-02 22:13:00,60.9,56.7,29.91,West,259,0.0,1.9,86,0.00,,,0.00,VWS V14.01,2013-07-03 05:13:00,
2013-07-02 22:18:00,60.9,56.7,29.91,West,265,0.0,1.9,86,0.00,,,0.00,VWS V14.01,2013-07-03 05:18:00,
2013-07-02 22:23:00,60.9,56.7,29.91,West,264,0.0,1.9,86,0.00,,,0.00,VWS V14.01,2013-07-03 05:23:00,
2013-07-02 22:27:00,60.8,56.6,29.91,West,266,0.0,1.9,86,0.00,,,0.00,VWS V14.01,2013-07-03 05:27:00,
2013-07-02 22:32:00,60.8,56.6,29.90,West,273,1.9,1.9,86,0.00,,,0.00,VWS V14.01,2013-07-03 05:32:00,
2013-07-02 22:37:00,60.7,56.5,29.90,WNW,284,0.0,3.8,86,0.00,,,0.00,VWS V14.01,2013-07-03 05:37:00,
2013-07-02 22:42:00,60.7,56.5,29.91,West,276,1.9,3.8,86,0.00,,,0.00,VWS V14.01,2013-07-03 05:42:00,
2013-07-02 22:47:00,60.5,56.3,29.91,WNW,284,1.9,1.9,86,0.00,,,0.00,VWS V14.01,2013-07-03 05:47:00,
2013-07-02 22:54:00,60.4,56.5,29.91,West,267,0.0,7.6,87,0.00,,,0.00,VWS V14.01,2013-07-03 05:54:00,
2013-07-02 22:55:00,60.4,56.5,29.91,West,271,0.0,7.6,87,0.00,,,0.00,VWS V14.01,2013-07-03 05:55:00,
2013-07-02 22:57:00,60.4,56.5,29.91,West,278,1.9,7.6,87,0.00,,,0.00,VWS V14.01,2013-07-03 05:57:00,
2013-07-02 23:02:00,60.4,56.5,29.91,West,270,1.9,1.9,87,0.00,,,0.00,VWS V14.01,2013-07-03 06:02:00,
2013-07-02 23:06:00,60.3,56.4,29.91,West,281,0.0,5.7,87,0.00,,,0.00,VWS V14.01,2013-07-03 06:06:00,
2013-07-02 23:11:00,60.3,56.4,29.91,West,280,3.8,5.7,87,0.00,,,0.00,VWS V14.01,2013-07-03 06:11:00,
2013-07-02 23:15:00,60.3,56.4,29.91,West,271,0.0,0.0,87,0.00,,,0.00,VWS V14.01,2013-07-03 06:15:00,
2013-07-02 23:17:00,60.3,56.4,29.91,WNW,284,0.0,1.9,87,0.00,,,0.00,VWS V14.01,2013-07-03 06:17:00,
2013-07-02 23:22:00,60.3,56.4,29.91,WNW,285,0.0,3.8,87,0.00,,,0.00,VWS V14.01,2013-07-03 06:22:00,
2013-07-02 23:29:00,60.4,56.8,29.91,West,278,0.0,5.7,88,0.00,,,0.00,VWS V14.01,2013-07-03 06:29:00,
2013-07-02 23:34:00,60.4,56.5,29.91,SSW,197,0.0,1.9,87,0.00,,,0.00,VWS V14.01,2013-07-03 06:34:00,
2013-07-02 23:39:00,60.5,56.6,29.91,SSW,198,0.0,1.9,87,0.00,,,0.00,VWS V14.01,2013-07-03 06:39:00,
2013-07-02 23:43:00,60.5,56.6,29.91,SSW,200,0.0,1.9,87,0.00,,,0.00,VWS V14.01,2013-07-03 06:43:00,
2013-07-02 23:49:00,60.5,56.6,29.91,SSE,160,0.0,1.9,87,0.00,,,0.00,VWS V14.01,2013-07-03 06:49:00,
2013-07-02 23:51:00,60.5,56.6,29.91,South,174,0.0,1.9,87,0.00,,,0.00,VWS V14.01,2013-07-03 06:51:00,
2013-07-02 23:56:00,60.4,56.5,29.91,SSW,211,0.0,1.9,87,0.00,,,0.00,VWS V14.01,2013-07-03 06:56:00,
2013-07-02 23:58:00,60.4,56.5,29.91,SSW,210,0.0,3.8,87,0.00,,,0.00,VWS V14.01,2013-07-03 06:58:00,